Regional Weather Roundup
Issued by NWS

Home | Current Version | Previous Version | Graphics & Text | Print | Product List | Glossary Off
Versions: 1 2 3 4 5 6 7 8 9 10 11 12 13 14 15 16 17 18 19 20 21 22 23 24 25 26 27 28 29 30 31 32 33 34 35 36 37 38 39 40 41 42 43 44 45 46 47 48 49 50

000
ASUS43 KDMX 311108
RWRIA

WEATHER ROUNDUP FOR IOWA
NATIONAL WEATHER SERVICE DES MOINES IA
600 AM CDT WED AUG 31 2016

NOTE: "FAIR" INDICATES FEW OR NO CLOUDS BELOW 12,000 FEET WITH NO
SIGNIFICANT WEATHER AND/OR OBSTRUCTIONS TO VISIBILITY.

* - THESE STATIONS ARE NOT NWS STATIONS...THUS NOT UNDER NWS
QUALITY CONTROL.  THEY ALSO DO NOT REPORT WEATHER SUCH
AS PRECIPITATION OR FOG.

IAZ001>003-012>014-020>022-031>034-043>046-311200-
   NORTHWEST IOWA

CITY           SKY/WX    TMP DP  RH WIND       PRES   REMARKS
CARROLL *      CLOUDY    59  59 100 CALM      30.19R
CHEROKEE *     FOG       58  58 100 NE5       30.21R VSB 1/2
DENISON *      FOG       61  61 100 CALM      30.18R VSB<1/4
LE MARS *      FOG       59  59 100 CALM      30.22S VSB 1/4
ORANGE CITY *  CLEAR     63  63 100 NE3       30.22S
SHELDON *      FOG       52  52 100 CALM      30.21S VSB<1/4
SIOUX CITY     FOG       62  59  90 N5        30.20S VSB 1/2
SPENCER        FOG       53  51  93 CALM      30.22R VSB 1/2
STORM LAKE *   PTCLDY    59  59 100 NE6       30.21S
$$

IAZ055>058-069>071-079>083-090>094-311200-
   SOUTHWEST IOWA

CITY           SKY/WX    TMP DP  RH WIND       PRES   REMARKS
ATLANTIC *     CLOUDY    64  64 100 N7        30.17S
AUDUBON *      CLOUDY    63  59  88 CALM      30.19S
CLARINDA *       N/A     70  68  94 MISG        N/A
COUNCIL BLFS * CLOUDY    66  66 100 NE6       30.18R
CRESTON *      CLOUDY    66  64  94 NE7       30.17R
HARLAN  *      CLOUDY    64  63  94 CALM      30.21S
LAMONI         CLOUDY    68  67  96 N6        30.14R
RED OAK *      CLOUDY    68  64  88 NE7       30.16R
SHENANDOAH *   CLOUDY    70  68  94 N7        30.16R
$$

IAZ047>049-059>061-072>074-084-311200-
   CENTRAL IOWA

CITY           SKY/WX    TMP DP  RH WIND       PRES   REMARKS
AMES           PTCLDY    61  61 100 N7        30.16S
ANKENY *         N/A    N/A N/A N/A MISG        N/A
BOONE *          N/A     59  57  94 N6        30.16S
CHARITON *       N/A     66  64  94 MISG      30.13S
DES MOINES     MOCLDY    68  61  78 N8        30.14S
GRINNELL*      MOCLDY    63  59  88 N6        30.15R
KNOXVILLE *    CLOUDY    66  61  82 N7        30.12S
MARSHALLTOWN   CLOUDY    59  58  96 N6        30.15S
NEWTON *       CLOUDY    63  63 100 N9        30.14R
PERRY *          N/A     62  62  98 N5        30.17S
$$

IAZ004>006-015-016-023>025-035-036-311200-
   NORTH CENTRAL IOWA

CITY           SKY/WX    TMP DP  RH WIND       PRES   REMARKS
ALGONA *       CLEAR     57  55  94 N5        30.20S
ESTHERVILLE    CLEAR     51  51 100 NW3       30.21S
FORT DODGE *   CLOUDY    57  54  88 CALM      30.20R
MASON CITY     CLOUDY    54  52  93 NW3       30.20R
FOREST CITY *    N/A     54  54 100 CALM      30.19S
WEBSTER CITY * CLOUDY    57  57 100 N5        30.16S
IOWA FALLS *     N/A     58  56  93 N5        30.18S
$$

IAZ007>011-017>019-026>030-037>042-050>054-066-311200-
   NORTHEAST IOWA

CITY           SKY/WX    TMP DP  RH WIND       PRES   REMARKS
CEDAR RAPIDS   MOCLDY    62  62 100 NW7       30.11S
CHARLES CITY * CLOUDY    55  55 100 N5        30.18R
CLINTON *      PTCLDY    65  64  97 N7        30.09R
DECORAH *      CLOUDY    57  57 100 CALM      30.15S
DUBUQUE        PTCLDY    62  60  93 N9        30.12R
MONTICELLO *   CLOUDY    61  61 100 MISG      30.12R
OELWEIN *      PTCLDY    59  57  94 N5        30.16S
WATERLOO       MOCLDY    58  56  93 NW3       30.14S
$$

IAZ064-065-067-068-078-311200-
   EAST CENTRAL IOWA

CITY           SKY/WX    TMP DP  RH WIND       PRES   REMARKS
DAVENPORT      MOCLDY    66  64  93 N5        30.09R
IOWA CITY      MOCLDY    68  62  81 N8        30.11S
MT. PLEASANT * MOCLDY    69  69 100 N6        30.10R
QUAD CITIES    CLOUDY    70  65  84 N3        30.07S
$$

IAZ062-063-075>077-085>089-095>099-311200-
   SOUTHEAST IOWA

CITY           SKY/WX    TMP DP  RH WIND       PRES   REMARKS
BURLINGTON     CLOUDY    70  69  97 N8        30.08R
FAIRFIELD *    PTCLDY    66  64  94 N6        30.10R
FORT MADISON * CLOUDY    70  70 100 N3        30.09R
KEOKUK *       MOCLDY    72  70  94 CALM      30.07S
OSKALOOSA *      N/A     64  63  96 N6        30.12R
CENTERVILLE *    N/A     68  66  94 CALM      30.14R
OTTUMWA        CLOUDY    66  63  90 N8        30.11R
WASHINGTON *   CLOUDY    68  66  94 N7        30.11R
$$

ABBREVIATIONS USED IN REMARKS
   TC - TEMPERATURES IN CELSIUS
  WCI - WIND CHILL INDEX
   HX - HEAT INDEX
  VSB - VISIBILITY
$$




USA.gov is the U.S. government's official web portal to all federal, state and local government web resources and services.